Temp_Advection
nan nan nan nan nan nan nan nan nan nan nan nan nan nan nan nan nan nan nan nan nan nan nan nan nan nan nan nan nan nan nan nan nan nan nan nan nan nan nan nan nan nan nan nan nan nan nan
nan -0 -1 -0 -0 -0 -0 -0 -1 -0 -0 -0 -1 -1 -1 -0 -0 -1 -0 -0 -0 -0 -0 -0 -0 -0 -1 -1 0 0 -0 -0 -0 -0 -0 -0 -0 -0 -0 -0 -0 -0 -0 0 0 0 nan
nan -0 -0 -0 -1 -1 -1 -1 -1 -1 -0 -0 -1 -1 -1 -1 -1 -1 -1 -0 -0 -0 -0 -0 -0 -0 -1 -1 0 -0 -0 -0 -0 -0 -0 -0 -0 -0 -0 0 0 -0 -1 -0 0 0 nan
nan -0 -0 -0 -0 -0 -0 -1 -1 -1 -1 -1 -1 -0 -1 -1 -1 -1 -1 -1 -0 -0 -0 -0 -0 -1 -1 -0 0 -0 -0 -0 0 -0 -0 -0 -0 -0 -0 -0 -0 -1 -0 -0 0 0 nan
nan -0 -0 -0 -0 -0 -0 -0 -1 -1 -1 -2 -2 -1 -1 -0 -0 -1 -1 -1 -0 -0 -0 -0 -0 -0 -1 0 0 0 -0 -0 -0 0 0 -0 -0 -0 -0 -1 -1 0 -0 -0 0 0 nan
nan 0 -0 -0 -0 -0 -0 -0 -0 -1 -1 -1 -2 -2 -2 -1 -0 -1 -1 -1 -0 0 -0 0 0 -0 -1 0 0 -0 -0 -0 -0 -0 -0 -0 -1 -1 -0 0 0 -1 -0 -0 0 -0 nan
nan -0 -0 -0 -0 -0 -0 -0 -0 -0 -0 -1 -1 -1 -2 -2 -1 -0 -1 -1 -1 -0 -0 -1 -0 0 -0 -0 -0 -0 0 -0 -0 -1 -1 -0 -0 -0 -1 -0 -0 -0 -0 -0 -1 0 nan
nan -0 -0 -0 -0 -0 -0 -0 -0 -0 -0 -0 -0 -1 -1 -1 -1 -0 -0 -0 -1 -1 -2 -2 -1 0 1 -0 -1 -0 -0 -0 -1 -1 0 0 -0 -0 -0 0 -0 -0 -0 -1 -0 0 nan
nan -0 -0 -0 -0 -0 -0 -0 -0 -0 -1 -1 -0 -1 -1 -1 -0 -0 -0 -0 -0 -0 -2 -1 0 0 0 -0 -1 0 -0 -1 -0 -0 0 -0 -0 0 -0 -0 -0 -0 -0 -0 -0 -1 nan
nan -0 -0 -0 -0 -0 -0 -0 -0 -0 -1 -1 -1 -1 -1 -1 -0 -0 0 0 -0 -0 -1 -1 0 0 -0 -1 -0 0 -0 -0 -0 -0 0 -0 0 0 -0 -0 -0 -0 -0 0 -0 -0 nan
nan -0 -0 -0 -0 -0 -0 -0 -0 -0 -0 -0 -1 -1 -0 -1 -0 -0 0 -0 0 0 -2 0 -0 -0 -0 -1 -0 -0 -0 0 -0 0 0 0 0 -0 -0 -0 -0 0 -0 -0 0 -0 nan
nan -0 -0 -0 -0 0 -0 -0 -0 -0 -0 -0 -0 -1 -0 -0 -0 -0 -0 0 0 -1 -1 0 -0 -0 -1 -1 -0 -0 -0 -0 -0 0 -0 -0 -0 -0 -0 0 0 -0 0 -0 -0 0 nan
nan -0 -0 -0 -0 -0 -0 0 -0 -0 -0 -0 -0 -0 -0 -0 -0 -0 -0 -0 -1 -1 0 -0 -0 -0 -0 -1 -0 -0 -1 -1 -0 0 -0 0 -0 0 0 -0 -0 0 -0 -0 0 0 nan
nan -0 -0 -0 -0 -0 -0 -0 -0 -0 -0 -0 -0 -1 -0 0 -1 -1 -1 -1 -1 -2 -1 0 -0 0 -0 -0 0 -0 -0 -1 -0 0 -0 0 0 -0 -0 -0 -0 -0 0 0 -0 -1 nan
nan -0 -0 -0 -0 -0 -0 -0 -0 -0 -0 -0 -1 -0 -0 -0 -0 -0 -1 -1 -1 -1 -1 0 0 0 -0 0 0 -0 -0 -1 0 0 0 -0 -0 0 0 0 0 0 -0 -0 0 -0 nan
nan -0 -0 -0 -0 -0 -0 -0 -0 -0 -0 -0 -0 -1 -0 -0 -0 -0 -1 -3 -1 -0 -1 -0 -1 -0 -0 0 -0 -0 -0 0 0 -0 -0 0 -0 0 0 0 0 -0 0 0 0 0 nan
nan -0 -0 -0 -0 -0 -0 -0 -0 -0 -0 -0 -0 -0 -0 -0 -0 -2 -2 -2 -0 0 -0 -1 -1 -1 -0 -0 0 0 0 0 0 0 -0 0 0 -0 0 0 -1 -0 0 -0 -0 0 nan
nan -0 -0 -0 -0 -0 -0 -0 -0 -0 -0 -0 -1 -0 0 -0 -1 -1 -1 0 -0 -1 -0 -0 -1 -1 -1 -0 0 -0 -0 -0 -1 -0 1 -0 -0 -0 -1 -1 0 1 0 1 1 -0 nan
nan -0 -0 -0 -0 -0 -0 -0 -0 -0 -0 -0 -1 -1 0 -0 -1 -1 -0 -0 -0 0 -0 -0 0 -0 -0 -0 0 -0 1 -2 -0 -0 -1 -1 -0 -0 -1 -0 0 0 -0 0 0 1 nan
nan -0 -0 -0 -1 -1 -0 -0 -0 -0 0 -0 -1 -0 -0 -0 -1 -1 -1 -0 1 0 -0 -1 -0 -0 -0 -0 -0 -0 1 -0 -0 -0 -0 -0 -1 -1 -0 -1 -1 -0 -0 0 1 0 nan
nan -0 -0 -0 -0 -1 -1 -1 -0 -0 0 -0 -1 -1 -0 -0 -0 -0 -0 -1 -0 0 0 -0 -0 -0 -0 -0 -0 -0 -0 -0 0 1 0 -0 -1 -1 -1 -1 -0 -0 -1 -0 -0 0 nan
nan 0 0 -0 -0 -0 -1 -1 -0 -0 0 -0 -1 -0 -0 -1 -1 -0 -0 -0 -1 0 0 -0 -0 -1 0 -0 -0 -0 -0 0 -0 -0 -0 0 0 -0 -1 -2 -0 -1 -1 -1 -1 -0 nan
nan -0 0 0 -0 -1 -0 -1 -1 0 0 -0 -1 -0 -1 -1 -1 -1 -0 -0 -0 0 0 -0 -0 -0 -0 -0 -0 -1 -1 -0 -1 -1 -1 -0 0 0 -1 -2 0 -0 -2 -1 -1 -1 nan
nan -1 -0 1 0 -1 -1 -0 -0 -0 -0 -0 -1 -0 -1 -1 -0 -1 -1 -0 -0 0 0 0 0 -0 -0 -0 -0 -0 -0 -0 -0 -0 -0 -0 -0 0 -0 0 -1 -4 -2 -0 -1 -1 nan
nan -0 -1 -0 0 -1 -1 -0 -0 -1 -0 -0 -1 -0 -1 -1 -1 -0 -0 -0 -0 -0 0 0 0 0 0 -0 -0 -1 -1 -1 -1 -1 -1 -0 0 0 -0 -1 -2 -2 -1 -1 -0 -1 nan
nan 0 -0 -1 -0 -0 -1 -1 -1 -0 -0 -0 -1 -0 -0 -1 -1 -0 -0 -0 0 -0 -0 0 0 0 -0 0 0 -0 -1 -1 -0 -0 0 1 1 1 0 0 -2 -4 -2 -0 0 -0 nan
nan 0 0 -0 -1 -1 -0 -1 -2 -1 -0 -1 -1 -0 -0 -1 -1 -1 -0 0 0 0 0 0 0 0 0 0 -0 -1 -1 -0 -0 -1 -1 0 1 1 0 -1 -2 -2 -1 1 1 -2 nan
nan 0 -0 -0 -1 -1 -1 -1 -1 -1 -1 -0 -1 -0 -0 -0 -1 -1 0 0 0 0 -0 -0 0 0 0 0 -0 -0 -1 -1 -1 -0 -0 -0 0 0 0 -0 -3 -3 0 -0 -1 -0 nan
nan nan nan nan nan nan nan nan nan nan nan nan nan nan nan nan nan nan nan nan nan nan nan nan nan nan nan nan nan nan nan nan nan nan nan nan nan nan nan nan nan nan nan nan nan nan nan
Wind_Speed
15 15 15 15 14 18 17 14 14 14 16 16 15 16 17 15 16 16 16 15 14 15 16 17 17 18 14 7 5 6 8 10 8 8 7 8 7 9 8 6 6 9 2 3 3 5 6
17 18 19 20 20 21 21 21 19 18 19 18 17 17 17 18 17 18 17 16 16 16 16 17 17 17 12 15 7 7 8 7 6 6 6 6 5 7 7 7 9 6 8 10 8 9 6
6 9 12 16 18 20 20 21 20 22 22 22 20 19 19 18 18 19 18 18 17 16 16 17 17 17 13 14 5 7 8 6 6 6 6 5 6 8 6 9 3 8 11 13 13 10 7
7 8 8 10 12 14 16 18 19 20 23 25 25 24 23 21 20 21 20 19 18 18 18 18 17 14 11 10 9 4 5 5 6 4 5 5 5 7 7 5 12 12 13 13 7 6 6
6 9 9 9 10 11 13 14 16 19 20 22 24 26 26 25 24 23 25 23 20 20 19 18 12 6 10 7 1 3 3 3 3 3 5 4 5 9 8 12 12 14 11 10 6 8 6
9 10 11 11 10 10 12 13 14 15 16 18 19 21 23 24 24 24 25 25 21 18 15 11 9 7 11 3 5 8 11 7 3 3 5 7 8 8 11 10 11 13 9 7 7 8 5
9 9 11 11 12 12 12 12 13 15 15 15 16 17 17 19 21 19 20 20 8 7 5 11 10 16 14 10 12 8 5 6 9 9 12 8 8 11 11 8 8 8 9 11 12 12 5
9 10 11 12 11 12 13 14 14 15 15 16 17 16 16 15 15 9 7 6 4 6 14 18 20 19 18 14 8 8 8 9 11 12 7 5 11 6 3 4 7 9 10 12 10 4 5
7 9 11 12 13 13 13 14 15 16 16 16 16 16 15 12 9 2 1 1 5 9 9 13 13 11 8 10 7 9 7 9 10 12 10 12 4 4 4 6 9 11 11 10 12 13 14
7 8 12 14 13 13 14 14 15 15 16 15 15 15 14 8 3 4 2 3 5 7 6 8 7 7 10 7 6 8 8 6 7 11 8 8 2 7 8 9 9 12 3 5 10 11 11
8 9 10 13 14 14 14 14 14 15 16 16 15 13 11 11 6 3 5 6 2 2 6 8 7 8 9 11 9 6 7 6 9 8 6 6 7 7 9 6 3 8 2 10 12 13 14
8 9 9 11 13 14 15 15 16 15 14 15 15 13 11 8 8 7 6 4 0 5 9 7 7 10 12 13 9 9 6 4 1 6 8 8 4 6 10 3 8 7 10 15 15 12 11
8 10 11 12 12 12 14 15 16 16 15 15 15 13 11 10 4 11 5 2 6 10 4 8 8 10 15 11 12 12 12 9 8 8 11 9 13 9 7 9 11 9 9 7 6 7 9
9 9 10 11 12 12 13 14 15 16 16 15 15 15 11 12 12 8 4 7 12 12 23 3 4 10 14 11 12 14 12 12 12 10 10 9 8 13 11 10 5 7 10 7 7 8 11
9 10 10 11 11 12 12 13 13 16 16 16 14 11 12 9 9 5 7 13 8 13 9 13 9 12 16 11 6 12 14 14 9 12 11 7 9 8 7 5 5 5 7 5 8 13 13
10 12 12 11 13 12 12 13 13 14 15 15 13 13 12 14 8 5 7 19 14 2 7 6 18 15 18 18 13 13 14 6 11 4 10 9 13 10 14 9 12 13 5 6 8 6 11
13 13 15 14 13 13 12 11 12 12 12 12 11 8 1 10 6 12 14 21 19 3 6 7 13 18 14 20 16 17 13 4 3 4 8 8 8 13 10 13 14 13 13 11 13 11 13
14 13 15 16 14 13 13 12 12 10 10 8 9 8 2 4 9 15 15 20 6 10 7 10 9 10 12 13 16 13 17 2 8 2 6 5 5 12 20 17 17 17 19 15 11 13 13
14 14 15 16 15 15 14 12 11 8 7 8 9 17 7 4 7 12 16 11 23 8 8 6 6 4 1 10 7 13 14 14 8 8 5 7 8 12 19 17 16 17 17 17 19 18 24
14 15 15 15 16 17 16 14 12 9 9 7 6 3 9 11 18 14 14 17 17 5 13 17 11 3 5 9 9 6 13 7 4 2 9 6 8 15 13 14 16 12 12 16 18 16 20
15 16 18 18 20 19 18 16 14 11 11 11 7 7 8 4 12 16 14 14 13 19 10 6 11 14 12 12 13 13 14 14 14 12 9 6 15 17 22 25 22 23 23 25 26 25 22
17 16 17 18 19 18 19 19 17 13 13 17 8 6 9 17 17 11 16 16 15 9 4 9 13 11 8 11 13 14 9 7 10 11 13 15 18 15 24 28 22 21 26 32 34 29 30
18 18 19 19 19 20 19 19 20 16 16 13 21 21 11 9 15 13 12 16 18 14 13 14 14 10 10 8 11 13 14 13 15 13 12 13 10 11 23 25 20 19 35 32 31 33 28
21 20 20 21 20 21 20 20 20 22 22 18 21 17 12 10 12 12 18 18 15 16 14 8 7 7 6 8 14 18 22 24 25 26 25 19 17 12 17 18 20 24 20 27 30 29 28
23 23 22 23 24 24 24 25 23 27 27 30 26 25 11 10 18 17 19 16 17 16 15 17 17 15 10 12 10 11 13 19 25 26 26 27 19 14 16 18 20 28 25 23 23 27 26
27 26 26 26 27 28 28 30 29 30 31 31 36 31 20 6 16 24 19 18 12 11 13 18 17 13 12 11 5 10 6 9 7 5 21 26 24 15 14 20 18 23 24 31 21 22 17
31 29 30 29 30 31 33 36 35 35 33 35 35 37 31 13 22 12 18 12 17 16 7 8 6 10 9 6 10 13 15 14 15 20 19 13 16 22 19 17 18 24 28 26 22 15 16
34 33 35 33 33 34 36 39 34 35 37 37 39 36 35 14 20 17 21 18 12 11 8 5 5 8 9 7 7 10 13 15 17 23 25 21 16 14 19 21 26 23 22 23 23 31 32
36 36 36 35 37 34 40 37 34 35 38 37 38 34 31 25 13 16 29 26 21 22 24 21 14 13 3 4 4 5 10 13 18 17 21 20 20 17 23 18 22 25 28 28 44 35 39
Wind_Direction
252 254 260 274 283 288 293 294 295 297 300 305 306 309 311 316 316 315 317 318 319 324 331 336 339 343 355 292 270 304 291 310 327 318 326 328 313 314 292 310 289 265 191 259 251 273 260
256 259 264 268 274 276 282 288 290 292 294 298 300 303 307 309 313 312 313 313 315 318 319 325 330 333 329 290 276 308 318 311 295 303 309 329 338 326 291 292 290 9 287 275 271 255 226
316 288 277 277 277 277 278 279 279 284 290 292 295 298 301 303 307 308 308 309 310 314 316 317 320 325 302 275 295 297 312 298 288 277 285 292 314 298 339 263 279 275 267 253 224 243 245
348 328 312 303 289 285 284 285 287 284 278 284 290 294 294 296 299 302 304 306 306 308 309 311 312 315 278 281 279 284 311 269 304 256 255 262 290 287 272 297 257 251 244 265 120 197 172
331 328 321 319 313 312 306 300 297 294 290 287 283 285 289 292 295 297 298 302 305 306 302 301 307 303 272 284 141 262 322 290 306 232 221 241 259 266 246 243 254 214 269 257 199 181 255
316 305 325 330 322 313 311 312 312 308 306 306 302 292 285 288 294 296 299 303 311 310 298 291 271 265 243 233 274 271 303 241 241 207 209 223 234 245 224 245 269 334 315 284 257 137 211
334 327 321 325 326 322 317 314 312 311 314 316 316 314 312 301 294 299 312 335 302 284 278 268 276 268 284 280 292 279 246 239 235 230 235 194 254 239 352 339 314 298 290 286 284 286 243
326 330 327 321 322 319 320 320 318 316 318 317 315 316 318 317 304 300 341 344 18 319 302 285 262 255 258 277 278 243 219 216 206 236 187 222 242 33 342 286 259 266 275 271 275 280 274
312 328 338 329 319 321 318 317 320 322 320 317 319 320 319 324 314 32 318 93 337 330 268 288 243 241 239 206 228 220 198 212 218 228 214 256 89 125 270 237 251 257 269 275 288 309 283
296 318 325 329 323 316 320 318 316 317 319 321 322 323 325 335 14 298 179 295 320 333 276 216 206 210 182 194 225 205 207 223 212 234 210 253 241 236 242 247 259 275 9 301 277 282 288
290 302 307 313 318 318 314 317 314 317 320 322 322 322 323 332 303 319 232 248 309 349 275 115 153 160 179 193 130 168 183 197 204 181 200 131 188 221 241 263 286 276 310 282 285 279 287
292 308 310 313 312 313 313 314 316 315 316 317 316 318 315 344 308 282 255 208 38 222 245 180 160 194 180 198 189 135 168 223 340 195 229 265 183 254 253 260 235 296 272 267 259 255 261
304 301 304 307 309 308 312 310 315 317 316 315 312 312 300 296 245 275 233 231 216 233 113 185 197 191 208 179 176 184 176 181 211 201 204 183 214 225 228 232 206 230 262 277 245 194 248
306 306 306 304 309 311 309 308 310 316 317 316 314 311 296 284 283 278 281 221 229 236 232 85 237 192 207 175 200 194 192 222 203 262 268 255 203 189 187 234 313 207 259 273 293 289 313
297 298 302 310 307 308 311 313 308 312 316 320 324 320 299 288 273 261 254 213 223 239 268 247 207 215 210 198 270 215 224 240 234 188 247 290 235 159 209 211 233 178 237 289 290 274 265
289 294 297 301 302 304 305 307 307 308 315 325 326 309 283 257 264 233 240 232 227 324 327 268 237 216 228 202 208 223 233 201 237 271 254 254 256 215 208 222 239 250 308 249 215 269 274
279 289 292 292 297 298 301 300 301 304 310 325 328 297 291 285 237 226 223 228 247 187 316 264 253 253 247 249 235 226 225 125 225 160 245 253 241 257 198 210 245 218 233 239 267 271 277
282 284 293 294 294 292 292 291 292 295 304 321 292 262 343 277 227 234 235 231 286 286 277 270 293 283 263 252 255 254 261 309 56 288 211 67 275 243 246 262 251 246 264 233 226 250 251
290 289 287 292 293 289 284 279 275 277 278 296 277 269 270 268 238 238 241 268 247 250 264 280 266 298 281 257 244 242 237 92 57 28 38 360 232 255 252 245 247 254 250 259 265 270 262
295 294 292 292 294 286 280 272 264 258 248 261 282 280 245 233 254 286 275 243 249 199 265 271 280 281 266 245 237 265 241 100 127 72 18 315 257 249 249 260 305 296 257 242 251 250 259
291 296 288 284 290 284 279 268 254 248 231 240 239 247 273 259 231 249 251 276 258 246 194 250 246 246 262 259 250 250 260 274 260 271 298 264 260 264 271 272 269 276 276 269 263 256 258
289 293 293 284 279 285 282 270 252 237 227 230 245 236 254 265 267 277 224 248 256 249 278 248 241 269 238 264 272 276 303 279 272 286 266 253 261 270 271 268 271 271 262 260 257 264 264
281 287 291 292 279 275 282 272 250 233 225 243 240 252 286 267 258 251 251 231 241 259 274 261 280 291 277 284 310 310 301 289 282 280 274 265 261 254 256 265 269 254 243 255 261 257 262
272 282 289 292 281 268 270 267 258 240 229 246 241 248 243 248 250 260 256 254 257 238 239 225 210 276 288 299 296 285 270 262 255 250 248 251 250 246 262 281 262 247 260 261 263 270 268
272 276 278 283 277 268 269 266 261 249 235 237 240 238 238 253 250 251 244 254 264 258 251 263 269 275 286 284 284 274 251 238 237 236 232 226 237 246 246 248 259 269 256 259 267 273 273
269 273 275 277 276 262 267 266 264 258 244 236 233 234 239 257 248 248 247 243 248 251 266 264 263 266 262 255 241 247 259 283 259 252 213 219 223 226 241 240 250 255 264 256 290 270 274
264 270 272 275 274 270 268 268 265 252 242 231 235 232 229 242 246 265 230 244 239 241 259 260 211 218 226 211 229 242 253 257 255 253 255 246 211 217 231 248 262 261 272 289 272 284 297
259 265 270 275 274 273 266 273 256 245 233 223 228 231 223 240 241 239 238 238 243 236 245 256 268 231 239 235 243 249 255 257 258 251 255 255 263 225 230 233 246 254 265 251 272 279 290
260 267 272 276 277 268 271 265 253 239 223 217 230 228 224 229 245 237 242 244 248 253 258 260 252 271 282 278 264 279 270 284 278 271 264 257 251 258 249 253 250 251 282 284 301 298 290
Height
1566 1568 1568 1568 1567 1567 1568 1567 1565 1563 1564 1563 1561 1560 1559 1556 1555 1553 1551 1549 1546 1545 1542 1540 1537 1535 1533 1533 1529 1527 1526 1527 1526 1526 1525 1522 1518 1516 1510 1509 1509 1506 1504 1509 1509 1510 1508
1564 1565 1564 1564 1564 1565 1565 1565 1564 1563 1563 1561 1559 1558 1557 1555 1553 1551 1550 1548 1545 1543 1541 1539 1537 1535 1536 1532 1527 1527 1526 1526 1527 1526 1525 1523 1521 1521 1515 1513 1512 1510 1509 1507 1507 1506 1507
1564 1563 1561 1561 1563 1562 1560 1561 1562 1560 1559 1560 1558 1556 1555 1553 1551 1549 1547 1546 1544 1542 1540 1537 1536 1533 1533 1530 1526 1526 1525 1524 1524 1524 1524 1524 1523 1521 1517 1511 1514 1512 1510 1500 1503 1503 1505
1562 1562 1561 1560 1561 1558 1558 1558 1558 1556 1557 1556 1555 1554 1554 1552 1549 1547 1545 1544 1542 1540 1538 1536 1534 1533 1529 1525 1523 1524 1524 1523 1522 1522 1523 1523 1522 1521 1519 1515 1512 1509 1503 1504 1492 1501 1504
1563 1562 1562 1561 1558 1556 1557 1556 1555 1553 1553 1553 1552 1551 1550 1549 1548 1545 1543 1541 1540 1537 1535 1533 1533 1533 1527 1522 1523 1523 1523 1522 1521 1520 1520 1520 1521 1518 1516 1511 1504 1494 1503 1492 1493 1497 1499
1562 1562 1561 1559 1559 1558 1557 1555 1554 1552 1550 1550 1549 1548 1547 1546 1544 1545 1541 1538 1536 1533 1531 1530 1529 1534 1524 1522 1522 1520 1520 1521 1521 1520 1520 1520 1516 1512 1505 1503 1509 1501 1498 1494 1500 1497 1504
1560 1559 1558 1557 1556 1556 1557 1555 1554 1553 1550 1549 1548 1546 1542 1542 1543 1543 1542 1539 1537 1533 1532 1529 1524 1523 1523 1522 1519 1519 1519 1519 1519 1518 1513 1514 1511 1505 1501 1504 1508 1509 1508 1508 1499 1495 1501
1560 1559 1558 1558 1558 1557 1555 1554 1553 1550 1547 1549 1549 1545 1543 1540 1541 1542 1544 1544 1544 1543 1532 1523 1519 1517 1518 1520 1518 1515 1517 1519 1515 1512 1509 1514 1511 1503 1510 1511 1512 1510 1510 1505 1495 1494 1504
1560 1559 1558 1557 1556 1556 1555 1554 1551 1548 1548 1550 1547 1543 1542 1539 1540 1542 1544 1545 1542 1542 1537 1515 1514 1512 1515 1517 1514 1512 1514 1512 1512 1509 1508 1510 1505 1511 1511 1509 1510 1504 1505 1502 1502 1496 1495
1559 1559 1558 1557 1556 1555 1554 1552 1552 1551 1550 1548 1545 1543 1541 1538 1543 1540 1543 1542 1540 1541 1530 1504 1508 1507 1511 1512 1510 1510 1511 1512 1511 1507 1507 1507 1504 1510 1509 1507 1504 1505 1495 1502 1503 1502 1501
1558 1558 1558 1556 1555 1554 1553 1552 1552 1549 1547 1545 1544 1543 1542 1540 1540 1543 1542 1541 1540 1543 1531 1496 1504 1506 1507 1506 1504 1507 1509 1511 1504 1506 1508 1501 1507 1508 1507 1500 1501 1501 1502 1502 1500 1501 1497
1556 1557 1557 1556 1554 1553 1552 1550 1550 1549 1547 1546 1545 1543 1541 1543 1541 1545 1540 1540 1542 1539 1527 1497 1499 1501 1503 1501 1501 1503 1506 1508 1505 1503 1504 1500 1503 1504 1500 1499 1503 1500 1503 1497 1492 1492 1501
1555 1555 1555 1555 1553 1552 1551 1550 1549 1548 1546 1545 1543 1542 1541 1541 1543 1539 1538 1542 1535 1522 1494 1493 1494 1495 1493 1494 1495 1497 1499 1502 1501 1508 1502 1499 1498 1499 1501 1500 1498 1503 1503 1503 1497 1496 1494
1554 1554 1555 1554 1553 1551 1550 1549 1548 1547 1545 1544 1542 1541 1540 1540 1540 1539 1542 1540 1525 1492 1491 1490 1490 1488 1490 1487 1489 1491 1492 1493 1492 1496 1495 1495 1501 1494 1494 1494 1490 1492 1494 1503 1516 1499 1486
1554 1553 1553 1552 1552 1551 1550 1549 1548 1547 1545 1543 1542 1542 1541 1541 1538 1540 1544 1527 1502 1495 1486 1484 1490 1491 1488 1485 1491 1490 1490 1485 1483 1489 1498 1495 1494 1485 1493 1492 1494 1490 1503 1486 1500 1495 1498
1551 1552 1551 1550 1551 1549 1548 1548 1547 1546 1545 1544 1543 1542 1539 1538 1538 1540 1539 1511 1500 1500 1504 1498 1492 1484 1484 1483 1490 1485 1486 1483 1486 1491 1491 1489 1499 1486 1488 1491 1491 1492 1485 1502 1496 1512 1502
1548 1549 1549 1548 1548 1547 1547 1547 1546 1546 1545 1545 1544 1542 1535 1536 1537 1538 1520 1513 1505 1505 1511 1505 1493 1486 1481 1481 1476 1484 1482 1484 1488 1494 1494 1489 1495 1491 1485 1491 1490 1486 1492 1493 1493 1492 1500
1546 1545 1547 1546 1545 1545 1545 1547 1546 1546 1546 1545 1545 1541 1535 1535 1537 1527 1516 1515 1515 1510 1512 1511 1506 1496 1488 1484 1485 1483 1484 1481 1499 1501 1496 1498 1497 1495 1486 1477 1477 1478 1480 1478 1495 1496 1484
1544 1543 1543 1544 1542 1542 1543 1545 1546 1545 1546 1548 1544 1538 1534 1535 1525 1521 1516 1517 1512 1516 1513 1510 1506 1505 1501 1495 1497 1489 1483 1499 1505 1505 1510 1509 1496 1499 1490 1484 1478 1479 1477 1478 1478 1476 1478
1540 1539 1539 1539 1538 1539 1540 1543 1544 1544 1545 1548 1546 1538 1532 1532 1531 1525 1517 1515 1515 1517 1519 1516 1514 1511 1508 1504 1499 1493 1492 1500 1507 1509 1514 1515 1500 1491 1491 1482 1474 1481 1477 1475 1475 1479 1469
1536 1535 1535 1536 1535 1537 1537 1539 1541 1543 1543 1546 1545 1536 1532 1527 1526 1525 1524 1519 1513 1512 1517 1519 1513 1511 1508 1505 1503 1504 1503 1503 1504 1507 1512 1512 1503 1497 1490 1486 1488 1488 1485 1479 1475 1467 1474
1531 1531 1531 1531 1532 1532 1532 1535 1538 1540 1540 1542 1541 1535 1533 1530 1525 1524 1522 1520 1517 1515 1519 1516 1516 1509 1508 1511 1509 1506 1505 1509 1509 1509 1507 1507 1501 1504 1498 1486 1492 1491 1482 1468 1461 1465 1462
1526 1527 1527 1526 1527 1529 1528 1532 1534 1533 1538 1533 1536 1536 1535 1529 1524 1520 1515 1514 1517 1518 1519 1518 1519 1517 1515 1516 1516 1516 1518 1519 1518 1516 1511 1507 1503 1503 1493 1483 1488 1492 1462 1462 1461 1454 1454
1521 1520 1519 1519 1522 1523 1525 1526 1526 1527 1530 1529 1532 1536 1533 1523 1523 1520 1516 1514 1514 1514 1516 1517 1520 1520 1519 1520 1520 1520 1519 1519 1518 1515 1516 1512 1508 1508 1496 1495 1499 1455 1461 1453 1447 1444 1444
1514 1514 1514 1514 1516 1517 1518 1517 1518 1520 1523 1526 1527 1530 1526 1521 1519 1518 1516 1515 1515 1514 1515 1516 1518 1520 1520 1521 1521 1511 1500 1499 1496 1500 1499 1503 1505 1503 1500 1479 1469 1457 1448 1448 1444 1436 1436
1507 1507 1508 1508 1508 1508 1508 1508 1510 1512 1517 1518 1519 1523 1523 1521 1513 1514 1513 1514 1515 1516 1515 1513 1517 1518 1519 1519 1520 1515 1500 1484 1478 1473 1472 1484 1492 1500 1487 1482 1468 1441 1439 1442 1440 1431 1434
1499 1500 1500 1500 1499 1498 1499 1499 1500 1503 1506 1511 1510 1515 1518 1513 1512 1512 1510 1510 1514 1514 1513 1512 1514 1515 1516 1517 1513 1503 1496 1493 1487 1481 1476 1471 1472 1479 1480 1481 1457 1442 1440 1448 1449 1433 1432
1490 1491 1491 1490 1489 1488 1488 1488 1488 1491 1496 1502 1502 1507 1509 1506 1507 1508 1510 1511 1511 1512 1510 1509 1513 1509 1511 1510 1506 1499 1490 1483 1478 1474 1472 1468 1464 1462 1469 1473 1458 1443 1442 1445 1432 1433 1432
1481 1481 1480 1479 1478 1477 1476 1476 1477 1480 1486 1494 1495 1499 1503 1503 1501 1501 1505 1507 1508 1510 1511 1508 1509 1505 1506 1502 1499 1494 1487 1481 1475 1465 1463 1460 1458 1454 1451 1439 1433 1429 1430 1429 1429 1432 1430